Regional Weather Roundup
Issued by NWS

Home | Current Version | Previous Version | Graphics & Text | Print | Product List | Glossary On
Versions: 1 2 3 4 5 6 7 8 9 10 11 12 13 14 15 16 17 18 19 20 21 22 23 24 25 26 27 28 29 30 31 32 33 34 35 36 37 38 39 40 41 42 43 44 45 46 47 48 49 50
000
ASUS43 KDTX 261710
RWRMI
MICHIGAN HOURLY REGIONAL WEATHER ROUNDUP
NATIONAL WEATHER SERVICE DETROIT/PONTIAC MI
100 PM EDT SAT JUL 26 2014

NOTE: "FAIR" INDICATES FEW OR NO CLOUDS BELOW 12,000 FEET WITH NO
SIGNIFICANT WEATHER AND/OR OBSTRUCTION TO VISIBILITY.

MIZ047>049-052>055-059>063-066>070-074>076-081>083-261800-
SOUTHEAST LOWER MICHIGAN

CITY           SKY/WX    TMP DP  RH WIND       PRES   REMARKS
ADRIAN         SUNNY     79  61  53 S9        29.89F
ALMA           CLOUDY    74  62  65 S7        29.86F
ANN ARBOR      SUNNY     79  58  48 SE6       29.88F
BAD AXE        RAIN      66  63  88 SW3       29.87F
CARO           CLOUDY    76  62  61 S5        29.86F
DETROIT CITY   MOSUNNY   80  58  46 S7        29.88F
DETROIT        MOSUNNY   79  59  50 SE3       29.88F
FLINT          SUNNY     77  59  53 VRB3      29.87F
GROSSE ILE     SUNNY     75  64  69 SE10      29.88F
HILLSDALE      PTSUNNY   76  62  61 CALM      29.90S
HOWELL         MOSUNNY   78  59  51 SW7       29.88S

CITY           SKY/WX    TMP DP  RH WIND       PRES   REMARKS
JACKSON        PTSUNNY   77  58  51 SW8       29.88F
LAMBERTVILLE   PTSUNNY   79  61  53 S6        29.89F
LANSING        MOSUNNY   77  62  59 VRB3      29.87F
LAPEER         FAIR      75  59  55 S9        29.87F
MASON          MOSUNNY   76  62  62 S5        29.87F
MONROE         MOSUNNY   79  61  53 W7        29.87F
MT. CLEMENS    PTSUNNY   77  61  58 SE12      29.87F
PONTIAC        PTSUNNY   78  58  49 SE6       29.88F
PORT HOPE        N/A     66  63  90 SW6       29.84F
PORT HURON     CLOUDY    73  63  68 S8        29.88F
TRI CITIES     MOSUNNY   77  62  59 S8        29.85F
TROY           SUNNY     78  55  45 SW7       29.89F
SAGINAW HB     PTSUNNY   77  61  57 S6        29.85F
$$
MIZ043>046-050>051-056>058-064>065-071>073-077>080-261800-
SOUTHWEST LOWER MICHIGAN

CITY           SKY/WX    TMP DP  RH WIND       PRES   REMARKS
BATTLE CREEK   PTSUNNY   76  62  62 VRB5      29.87F
BENTON HARBOR  CLOUDY    72  63  73 W10       29.86R
BIG RAPIDS     CLOUDY    72  62  70 W6        29.86S
COLDWATER      MOSUNNY   77  65  65 SE6       29.87F
FREMONT        CLOUDY    74  63  69 SW8       29.85S
HOLLAND        CLOUDY    77  63  61 CALM      29.86F
GRAND RAPIDS   CLOUDY    78  64  61 VRB5      29.86F
IONIA          PTSUNNY   75  62  63 CALM      29.85F
KALAMAZOO      PTSUNNY   75  63  66 SE5       29.86F
LUDINGTON      CLOUDY    72  64  74 SW12      29.84F
MARSHALL       CLOUDY    75  62  64 SE5       29.86F
MOUNT PLEASANT CLOUDY    74  63  67 S6        29.85F
MUSKEGON       CLOUDY    72  61  68 W7        29.87R
SOUTH HAVEN    CLOUDY    74  66  75 CALM      29.86R
$$
MIZ016>042-261800-
NORTHERN LOWER MICHIGAN

CITY           SKY/WX    TMP DP  RH WIND       PRES   REMARKS
ALPENA         CLOUDY    74  63  68 S9        29.79F
BEAVER ISLAND  PTSUNNY   68  64  86 SW17G28   29.77R
BELLAIRE       PTSUNNY   75  64  67 S12       29.78S
CADILLAC       CLOUDY    71  64  79 S10       29.84F
CHARLEVOIX     MOSUNNY   75  65  70 SW14G20   29.79S
FRANKFORT      MOSUNNY   74  62  66 SW8G17    29.81F
GAYLORD        MOSUNNY   74  64  71 SW14      29.80F
GRAYLING       PTSUNNY   74  68  80 SW14      29.83F
HARBOR SPRINGS PTSUNNY   73  65  75 SW3       29.76F
HOUGHTON LAKE  CLOUDY    72  64  76 SW9       29.84F
MANISTEE       CLOUDY    72  63  73 SW6       29.83F
OSCODA         PTSUNNY   73  62  69 SW10      29.83F
PELLSTON       PTSUNNY   74  65  73 SW8       29.77F
ROGERS CITY    CLOUDY    73  66  78 S5        29.80S
TRAVERSE CITY  PTSUNNY   77  63  61 SW12G20   29.78F
$$
MIZ007>008-015-261800-
EASTERN UPPER MICHIGAN

CITY           SKY/WX    TMP DP  RH WIND       PRES   REMARKS
KINROSS        CLOUDY    66  64  94 S7        29.76F
MACKINAC ISLAN PTSUNNY   67  63  85 W6        29.77S
NEWBERRY       CLOUDY    66  63  89 S15G22    29.74S
S. S. MARIE    CLOUDY    66  63  90 S6        29.74F FOG
MUNISING         N/A     71  64  78 S12       29.72F
$$
MIZ004>006-011>014-085-261800-
CENTRAL UPPER MICHIGAN

CITY           SKY/WX    TMP DP  RH WIND       PRES   REMARKS
MANISTIQUE     CLOUDY    68  63  84 SW9       29.74F
ESCANABA       CLOUDY    70  63  78 S14       29.74F
MENOMINEE      CLOUDY    75  66  73 W5        29.75F
$$
MIZ001>003-009>011-084-261800-
WESTERN UPPER MICHIGAN

CITY           SKY/WX    TMP DP  RH WIND       PRES   REMARKS
IRON MOUNTAIN  PTSUNNY   81  65  58 W14       29.73F
HOUGHTON       SUNNY     72  62  71 W16       29.72S
COPPER HARBOR    N/A     59  56  89 N17       29.70R
$$

ABBREVIATIONS USED IN REMARKS
   TC - TEMPERATURE IN CELSIUS
  WCI - WIND CHILL INDEX
   HX - HEAT INDEX
  VSB - VISIBILITY



USA.gov is the U.S. government's official web portal to all federal, state and local government web resources and services.